TimeCDT,TemperatureF,Dew PointF,Humidity,Sea Level PressureIn,VisibilityMPH,Wind Direction,Wind SpeedMPH,Gust SpeedMPH,PrecipitationIn,Events,Conditions,WindDirDegrees,DateUTC
12:53 AM,64.0,57.9,80,29.95,10.0,WSW,5.8,-,N/A,,Mostly Cloudy,250,2013-08-01 05:53:00
1:53 AM,62.1,57.9,86,29.94,10.0,WSW,5.8,-,N/A,,Clear,250,2013-08-01 06:53:00
2:53 AM,62.1,57.0,84,29.94,10.0,West,8.1,-,N/A,,Clear,270,2013-08-01 07:53:00
3:53 AM,61.0,55.9,83,29.95,10.0,West,5.8,-,N/A,,Partly Cloudy,280,2013-08-01 08:53:00
4:53 AM,57.9,54.0,87,29.95,10.0,Calm,Calm,-,N/A,,Clear,0,2013-08-01 09:53:00
5:53 AM,57.9,53.1,84,29.96,10.0,Calm,Calm,-,N/A,,Clear,0,2013-08-01 10:53:00
6:53 AM,59.0,54.0,83,29.97,10.0,Calm,Calm,-,N/A,,Clear,0,2013-08-01 11:53:00
7:53 AM,63.0,54.0,72,29.98,10.0,NW,6.9,-,N/A,,Clear,310,2013-08-01 12:53:00
8:53 AM,66.9,54.0,63,29.98,10.0,NW,9.2,-,N/A,,Partly Cloudy,310,2013-08-01 13:53:00
9:53 AM,69.1,53.1,57,29.98,10.0,WNW,11.5,-,N/A,,Clear,300,2013-08-01 14:53:00
10:53 AM,72.0,51.1,48,29.98,10.0,NW,15.0,-,N/A,,Clear,310,2013-08-01 15:53:00
11:53 AM,73.0,52.0,48,29.98,10.0,WNW,15.0,-,N/A,,Scattered Clouds,290,2013-08-01 16:53:00
12:53 PM,75.0,51.1,43,29.97,10.0,WNW,13.8,23.0,N/A,,Partly Cloudy,300,2013-08-01 17:53:00
1:53 PM,75.9,50.0,40,29.96,10.0,WNW,15.0,21.9,N/A,,Partly Cloudy,290,2013-08-01 18:53:00
2:53 PM,77.0,51.1,40,29.96,10.0,WNW,15.0,23.0,N/A,,Partly Cloudy,290,2013-08-01 19:53:00
3:53 PM,77.0,50.0,39,29.94,10.0,WNW,13.8,20.7,N/A,,Clear,300,2013-08-01 20:53:00
4:53 PM,78.1,51.1,39,29.94,10.0,West,9.2,-,N/A,,Mostly Cloudy,270,2013-08-01 21:53:00
5:53 PM,75.9,50.0,40,29.92,10.0,West,10.4,-,N/A,,Partly Cloudy,270,2013-08-01 22:53:00
6:53 PM,75.0,50.0,41,29.92,10.0,West,5.8,-,N/A,,Clear,270,2013-08-01 23:53:00
7:53 PM,72.0,52.0,49,29.92,10.0,WSW,3.5,-,N/A,,Clear,240,2013-08-02 00:53:00
8:53 PM,66.9,52.0,59,29.92,10.0,WSW,4.6,-,N/A,,Clear,240,2013-08-02 01:53:00
9:53 PM,64.0,51.1,63,29.93,10.0,SW,3.5,-,N/A,,Clear,220,2013-08-02 02:53:00
10:53 PM,64.0,52.0,65,29.92,10.0,SW,4.6,-,N/A,,Mostly Cloudy,230,2013-08-02 03:53:00
11:53 PM,62.1,52.0,70,29.90,10.0,SSW,3.5,-,N/A,,Clear,210,2013-08-02 04:53:00